Location: Eppenbrunn
(49.1158°N, 7.5601°E)
Time: 10:42:19
(UTC+00:00)

Cosmos 2360 Rocket - Pass Details

Date: 09 April 2020
Orbit: 834 x 845 km, 71.0° (Epoch: 25 May)

Event Time Altitude Azimuth Distance (km) Brightness Sun altitude
Rises 23:13:05 0° 331° (NNW) 3,395 6.3 -32.7°
Reaches altitude 10° 23:15:32 10° 333° (NNW) 2,458 5.3 -32.7°
Enters shadow 23:19:40 50° 341° (NNW) 1,056 2.9 -32.8°
